sat.trackr.live / text

‹ back to catalog

STARLINK-2704

NORAD 48643 · 2021-044F

PAYLOAD ACTIVE UNKNOWN

§ Identity

Operator
Country
US
Launch date
2021-05-26
Launch site
AFETR
Launch vehicle
Mass (kg)
RCS (m²)

Purposes: comms

External: N2YO · Heavens-Above · Gunter

§ Orbital elements

Epoch: 2026-05-25T02:19:37.763904Z

Period
94.01 min
Inclination
53.1603°
Eccentricity
0.0001506
Mean motion
15.31700236 rev/d
Perigee alt
469.7 km
Apogee alt
471.8 km
Semi-major
6,848.9 km
B*
6.1187e-5
RAAN
118.5010°
Arg perigee
98.8194°
Mean anomaly
261.2978°
Rev number
27,553

§ Raw data

STARLINK-27041 48643U 21044F   26145.09696486  .00001534  00000+0  61187-4 0  99912 48643  53.1603 118.5010 0001506  98.8194 261.2978 15.31700236275537

JSON: /api/v1/satellites/48643 · /tle

For live sub-satellite position, see the globe view (requires WebGL).

§ Visibility from observer

Set your observer location to see the next 7 days of passes ≥ 10°. The values pass through the URL so the page stays shareable.

No JS? Fill the form by hand. The geolocation button needs JavaScript.